Location: Monfort
(47.1967°N, 0.2115°W)
Time: 12:01:00
(UTC+00:00)

Aureole 3 Rocket - Pass Details

Date: 24 October 2020
Orbit: 399 x 1739 km, 82.5° (Epoch: 28 November)

Event Time Altitude Azimuth Distance (km) Brightness Sun altitude
Rises 18:59:41 0° 202° (SSW) 2,502 6.4 -21.5°
Reaches altitude 10° 19:01:33 10° 208° (SSW) 1,728 5.6 -21.8°
Maximum altitude 19:05:12 52° 286° (WNW) 765 3.8 -22.4°
Drops below altitude 10° 19:10:08 10° 2° (N) 2,341 6.1 -23.3°
Sets 19:13:01 0° 7° (N) 3,508 6.9 -23.8°
